Precipitable_Water
0.35 0.39 0.39 0.40 0.41 0.43 0.47 0.51 0.56 0.57 0.56 0.54 0.51 0.49 0.49 0.49 0.54 0.61 0.65 0.70 0.76 0.77 0.82 0.84 0.81 0.94 0.95 0.94 0.95 0.89 0.82 0.74 0.67 0.73 0.75 0.77 0.74 0.81 0.83 0.80 0.70 0.53 0.54
0.35 0.39 0.39 0.39 0.40 0.42 0.50 0.53 0.56 0.57 0.58 0.56 0.54 0.53 0.52 0.52 0.55 0.63 0.68 0.73 0.81 0.85 0.86 0.85 0.79 0.88 0.92 0.94 0.90 0.89 0.85 0.80 0.73 0.68 0.74 0.74 0.80 0.82 0.79 0.67 0.54 0.58 0.55
0.35 0.38 0.40 0.40 0.38 0.43 0.51 0.54 0.58 0.59 0.55 0.54 0.56 0.54 0.55 0.60 0.65 0.70 0.75 0.77 0.80 0.86 0.89 0.86 0.82 0.91 0.88 0.91 0.90 0.85 0.86 0.85 0.84 0.72 0.70 0.79 0.80 0.77 0.70 0.64 0.58 0.55 0.45
0.36 0.40 0.40 0.38 0.37 0.43 0.51 0.56 0.56 0.55 0.55 0.58 0.62 0.67 0.69 0.70 0.73 0.79 0.87 0.90 0.88 0.90 0.89 0.88 0.91 0.90 0.86 0.86 0.88 0.88 0.87 0.84 0.80 0.78 0.74 0.74 0.73 0.72 0.70 0.65 0.57 0.47 0.43
0.35 0.36 0.37 0.37 0.42 0.48 0.53 0.54 0.54 0.56 0.61 0.66 0.68 0.68 0.69 0.72 0.75 0.80 0.86 0.86 0.85 0.84 0.86 0.90 0.92 0.92 0.93 0.90 0.88 0.86 0.83 0.79 0.79 0.76 0.72 0.69 0.68 0.65 0.63 0.64 0.54 0.44 0.40
0.35 0.37 0.37 0.40 0.46 0.49 0.51 0.51 0.54 0.59 0.64 0.67 0.66 0.67 0.67 0.70 0.74 0.79 0.82 0.78 0.82 0.81 0.81 0.85 0.87 0.86 0.87 0.87 0.86 0.88 0.86 0.79 0.76 0.72 0.69 0.67 0.65 0.66 0.67 0.62 0.46 0.37 0.37
0.38 0.37 0.38 0.44 0.47 0.48 0.48 0.51 0.55 0.59 0.64 0.66 0.65 0.64 0.64 0.69 0.72 0.75 0.78 0.77 0.78 0.78 0.78 0.78 0.78 0.81 0.83 0.84 0.83 0.83 0.83 0.81 0.79 0.74 0.69 0.67 0.67 0.66 0.58 0.50 0.40 0.43 0.36
0.34 0.35 0.44 0.47 0.48 0.48 0.48 0.51 0.56 0.60 0.63 0.63 0.62 0.63 0.63 0.66 0.70 0.72 0.73 0.74 0.74 0.74 0.75 0.77 0.76 0.78 0.80 0.79 0.78 0.77 0.77 0.77 0.76 0.76 0.73 0.73 0.69 0.64 0.55 0.49 0.47 0.38 0.35
0.34 0.43 0.47 0.48 0.48 0.47 0.48 0.51 0.56 0.60 0.61 0.61 0.61 0.61 0.61 0.62 0.67 0.69 0.70 0.69 0.68 0.69 0.71 0.73 0.75 0.74 0.77 0.77 0.74 0.70 0.70 0.70 0.76 0.76 0.76 0.75 0.71 0.66 0.61 0.51 0.38 0.32 0.30
0.43 0.48 0.52 0.51 0.49 0.47 0.49 0.53 0.59 0.62 0.60 0.60 0.59 0.60 0.61 0.61 0.64 0.66 0.67 0.65 0.63 0.64 0.65 0.68 0.71 0.71 0.73 0.72 0.69 0.67 0.64 0.65 0.67 0.68 0.68 0.67 0.65 0.60 0.53 0.45 0.37 0.29 0.30
0.51 0.53 0.53 0.52 0.50 0.48 0.51 0.55 0.58 0.60 0.60 0.58 0.56 0.58 0.58 0.60 0.61 0.63 0.64 0.63 0.62 0.61 0.62 0.62 0.65 0.67 0.68 0.68 0.69 0.67 0.65 0.67 0.66 0.65 0.63 0.60 0.56 0.49 0.45 0.43 0.37 0.34 0.31
0.53 0.52 0.51 0.49 0.49 0.50 0.51 0.55 0.59 0.59 0.57 0.55 0.55 0.54 0.56 0.58 0.59 0.61 0.62 0.62 0.63 0.61 0.59 0.61 0.63 0.64 0.64 0.65 0.65 0.66 0.65 0.65 0.64 0.61 0.56 0.49 0.44 0.42 0.41 0.40 0.39 0.39 0.39
0.52 0.51 0.50 0.49 0.50 0.51 0.51 0.54 0.56 0.57 0.56 0.54 0.53 0.52 0.52 0.55 0.57 0.59 0.60 0.60 0.61 0.59 0.60 0.60 0.61 0.61 0.61 0.62 0.62 0.62 0.62 0.61 0.57 0.50 0.44 0.42 0.41 0.39 0.38 0.37 0.37 0.38 0.38
0.50 0.50 0.51 0.49 0.49 0.50 0.52 0.55 0.55 0.56 0.55 0.54 0.52 0.52 0.52 0.53 0.54 0.56 0.56 0.58 0.58 0.58 0.58 0.57 0.58 0.58 0.59 0.58 0.58 0.56 0.54 0.52 0.48 0.44 0.40 0.39 0.39 0.37 0.35 0.35 0.32 0.32 0.32
0.50 0.52 0.52 0.51 0.50 0.50 0.52 0.54 0.55 0.58 0.57 0.54 0.54 0.54 0.52 0.51 0.53 0.56 0.55 0.55 0.55 0.56 0.56 0.55 0.54 0.53 0.52 0.51 0.50 0.47 0.44 0.41 0.38 0.39 0.38 0.36 0.35 0.34 0.32 0.33 0.31 0.30 0.27
0.48 0.51 0.53 0.52 0.51 0.50 0.51 0.52 0.59 0.59 0.59 0.59 0.58 0.57 0.56 0.56 0.56 0.56 0.55 0.55 0.55 0.54 0.50 0.47 0.46 0.44 0.41 0.39 0.37 0.35 0.35 0.34 0.34 0.33 0.32 0.30 0.28 0.27 0.27 0.27 0.27 0.26 0.23
0.45 0.50 0.52 0.53 0.51 0.50 0.51 0.52 0.51 0.56 0.58 0.58 0.58 0.57 0.57 0.56 0.56 0.55 0.53 0.52 0.52 0.50 0.48 0.47 0.43 0.41 0.39 0.37 0.35 0.35 0.33 0.33 0.33 0.30 0.29 0.28 0.27 0.25 0.23 0.23 0.22 0.23 0.23
0.41 0.45 0.49 0.52 0.51 0.51 0.52 0.52 0.52 0.51 0.50 0.51 0.56 0.56 0.56 0.55 0.55 0.53 0.51 0.49 0.47 0.48 0.48 0.47 0.46 0.45 0.45 0.45 0.44 0.42 0.38 0.38 0.37 0.34 0.33 0.31 0.30 0.29 0.27 0.26 0.26 0.27 0.27
0.38 0.39 0.42 0.46 0.48 0.50 0.51 0.51 0.51 0.51 0.51 0.50 0.51 0.53 0.54 0.54 0.53 0.52 0.51 0.48 0.47 0.46 0.47 0.47 0.47 0.45 0.43 0.41 0.39 0.38 0.37 0.36 0.36 0.36 0.35 0.34 0.35 0.32 0.29 0.28 0.31 0.31 0.33
0.38 0.38 0.39 0.40 0.41 0.43 0.44 0.44 0.46 0.47 0.48 0.48 0.48 0.49 0.50 0.50 0.47 0.47 0.48 0.47 0.46 0.45 0.45 0.44 0.44 0.43 0.42 0.41 0.40 0.37 0.36 0.35 0.35 0.36 0.38 0.36 0.35 0.33 0.32 0.34 0.35 0.35 0.34
0.37 0.37 0.37 0.37 0.37 0.38 0.38 0.39 0.40 0.40 0.41 0.42 0.45 0.47 0.48 0.46 0.44 0.44 0.45 0.45 0.45 0.44 0.44 0.44 0.43 0.43 0.43 0.42 0.41 0.41 0.40 0.40 0.39 0.39 0.38 0.39 0.38 0.36 0.37 0.36 0.35 0.34 0.33
0.37 0.36 0.37 0.36 0.36 0.35 0.35 0.36 0.37 0.37 0.37 0.38 0.39 0.41 0.43 0.42 0.42 0.42 0.42 0.42 0.43 0.43 0.43 0.43 0.42 0.42 0.41 0.40 0.40 0.39 0.38 0.37 0.38 0.37 0.37 0.37 0.36 0.35 0.35 0.33 0.33 0.32 0.31
0.36 0.36 0.37 0.37 0.37 0.36 0.36 0.36 0.35 0.35 0.36 0.36 0.36 0.36 0.37 0.37 0.38 0.38 0.38 0.39 0.40 0.40 0.41 0.41 0.40 0.40 0.41 0.41 0.41 0.40 0.38 0.37 0.37 0.37 0.36 0.35 0.34 0.33 0.32 0.31 0.30 0.30 0.29
0.36 0.36 0.36 0.37 0.37 0.37 0.36 0.36 0.36 0.36 0.36 0.35 0.36 0.35 0.36 0.36 0.36 0.36 0.37 0.38 0.38 0.39 0.40 0.39 0.39 0.39 0.39 0.39 0.39 0.39 0.39 0.38 0.38 0.37 0.36 0.34 0.32 0.32 0.31 0.30 0.29 0.28 0.28
0.35 0.35 0.35 0.35 0.36 0.36 0.37 0.37 0.37 0.38 0.37 0.37 0.36 0.36 0.36 0.36 0.36 0.36 0.36 0.36 0.36 0.36 0.36 0.36 0.36 0.36 0.36 0.35 0.35 0.36 0.36 0.36 0.35 0.35 0.34 0.32 0.31 0.30 0.29 0.27 0.26 0.25 0.25
0.35 0.36 0.36 0.36 0.36 0.36 0.37 0.38 0.38 0.38 0.38 0.38 0.38 0.38 0.37 0.37 0.36 0.36 0.35 0.35 0.34 0.34 0.34 0.34 0.33 0.32 0.32 0.32 0.32 0.32 0.32 0.31 0.31 0.31 0.30 0.29 0.27 0.26 0.25 0.24 0.23 0.22 0.22
Wind_Speed
51 53 54 57 60 62 63 63 63 64 65 64 64 63 61 57 55 55 57 56 57 58 59 62 67 64 58 60 57 57 51 47 42 39 38 36 34 34 32 30 29 28 28
52 54 56 58 62 63 62 62 61 61 61 61 58 54 49 49 51 52 54 56 57 59 59 60 61 64 56 58 59 52 50 46 44 41 37 37 35 35 34 31 31 29 28
53 55 57 60 64 63 62 59 57 57 56 52 47 43 44 45 47 50 54 58 62 62 61 58 57 58 59 56 54 54 48 45 43 40 37 37 34 31 31 29 29 29 28
54 57 60 62 64 61 58 55 53 50 45 41 39 40 42 44 46 46 44 40 43 45 48 52 54 52 56 54 49 51 47 45 42 38 36 38 33 34 33 33 31 29 29
56 58 60 62 60 56 52 49 46 38 38 37 38 40 42 37 32 25 23 20 24 31 38 43 46 47 51 55 49 47 45 43 41 36 35 35 34 33 32 31 30 30 29
56 58 60 57 54 49 46 42 35 35 34 36 37 35 28 20 17 18 18 20 24 26 30 36 40 42 41 42 45 45 44 42 39 36 34 33 32 34 32 31 30 30 27
56 56 54 51 46 44 39 33 32 32 33 33 29 22 16 13 12 12 14 15 20 23 27 32 34 37 37 36 40 41 40 39 41 38 34 33 31 31 31 31 31 29 26
52 51 48 45 43 39 30 29 28 29 28 27 21 14 11 10 9 8 8 15 17 17 23 29 31 34 36 33 31 36 37 37 37 33 32 30 29 29 29 29 28 27 24
46 44 43 40 39 31 27 25 25 24 22 21 15 10 9 9 9 9 10 11 16 19 20 22 26 29 33 33 30 29 27 32 35 33 31 30 30 29 29 28 28 27 24
40 38 37 37 34 25 22 20 19 18 16 15 10 6 6 8 10 11 12 12 15 17 19 21 24 26 29 31 30 29 27 27 29 29 28 27 27 28 29 29 29 28 25
34 33 33 35 25 18 17 14 13 13 12 10 5 2 4 7 9 11 12 14 15 16 18 20 21 24 25 25 27 27 27 27 27 27 26 26 25 26 27 28 29 28 26
30 31 32 30 19 14 11 10 8 8 8 8 7 3 4 6 8 9 11 14 15 16 17 20 22 23 23 24 25 26 26 26 26 26 25 24 24 25 26 26 27 27 26
27 29 30 27 13 9 7 5 5 4 4 7 9 9 8 7 9 10 11 13 14 16 16 19 20 21 22 22 22 23 25 25 25 25 24 23 24 24 24 24 24 25 25
25 25 27 20 9 6 5 4 3 1 2 5 8 10 11 12 11 11 12 12 14 15 17 18 19 20 20 20 21 22 23 23 23 23 22 22 23 23 23 24 24 25 25
20 21 23 13 7 5 3 2 2 1 3 3 5 7 9 10 11 13 14 15 15 17 18 18 18 19 19 19 19 20 21 21 21 21 22 22 22 22 23 24 25 26 26
16 17 17 13 5 4 3 2 1 3 4 4 5 6 6 8 10 12 13 14 15 15 15 15 15 15 16 16 17 18 19 20 21 21 21 22 22 23 24 25 26 26 26
13 13 13 12 8 4 0 2 3 5 6 6 6 5 6 7 8 9 9 11 11 11 11 12 12 12 13 15 15 17 17 19 21 21 22 22 23 23 25 26 26 27 27
13 12 11 10 9 7 6 4 3 3 4 4 4 4 6 7 7 7 8 8 7 8 9 10 11 12 13 15 16 17 18 19 21 22 23 23 24 25 26 27 28 28 28
10 11 11 10 9 6 5 4 3 3 3 2 3 4 5 6 6 6 6 7 7 7 8 10 11 12 13 14 16 17 18 19 21 22 23 24 25 26 27 27 28 29 30
8 9 9 10 9 8 6 5 3 1 0 2 3 4 5 5 5 6 7 8 8 8 9 10 11 12 13 14 16 17 18 20 22 23 24 25 26 27 28 28 29 30 30
7 8 8 7 7 7 7 5 4 3 1 1 3 4 5 6 6 7 7 8 9 10 11 12 13 13 14 15 16 17 19 20 22 23 24 25 26 26 26 27 27 27 28
7 7 7 7 7 7 6 5 4 4 3 2 1 3 4 5 5 6 7 7 9 9 10 11 12 13 14 15 16 17 17 18 19 20 21 22 22 23 24 24 25 25 26
7 7 7 7 7 7 6 6 5 4 3 2 1 1 2 3 3 4 5 5 6 7 8 8 9 10 11 12 13 14 15 16 17 18 19 20 21 22 22 23 24 25 26
9 8 8 8 8 8 8 8 7 5 5 4 4 3 3 3 4 4 4 5 6 6 7 8 9 10 11 12 13 14 15 16 17 17 18 19 20 21 22 23 24 25 26
9 9 9 9 10 10 10 10 9 8 7 6 6 5 5 5 4 4 4 4 5 5 6 7 9 9 10 11 12 13 14 16 17 18 19 20 21 22 23 24 25 26 27
9 9 9 9 9 10 10 9 8 8 7 7 6 6 6 5 5 5 6 6 6 7 7 8 9 9 10 12 13 14 14 15 17 18 19 20 21 22 24 25 26 27 27
Wind_Direction
300 301 302 302 302 300 298 296 293 292 291 289 288 285 279 273 269 266 261 259 254 251 244 242 236 232 233 231 230 228 229 232 234 234 238 238 237 240 241 244 241 239 239
301 302 302 302 303 301 299 298 296 293 293 292 290 286 278 272 270 266 263 259 254 249 244 237 233 228 230 227 228 227 225 228 229 232 233 231 240 239 242 241 238 237 234
302 302 303 303 304 302 302 300 297 297 296 294 290 284 280 275 273 269 267 262 255 246 239 232 224 225 224 223 221 224 225 226 229 228 233 234 235 238 238 236 234 232 232
304 305 305 305 306 305 303 301 299 299 296 295 291 288 285 281 277 273 268 257 243 234 223 220 218 222 221 220 223 217 222 223 223 226 228 234 239 237 235 232 232 227 230
306 306 307 308 307 305 303 302 301 298 298 297 295 294 291 284 274 265 254 244 220 215 214 214 216 216 217 219 220 218 217 221 227 229 232 237 234 232 225 224 226 226 229
308 308 310 309 309 305 303 303 301 300 301 301 300 298 291 278 267 250 240 236 215 215 209 210 214 210 210 211 213 213 216 221 225 234 237 230 230 224 221 220 220 222 229
310 311 311 310 308 306 304 301 302 304 306 307 302 297 282 269 250 247 236 217 205 205 208 207 207 204 203 209 209 213 218 222 229 228 222 223 220 216 217 215 216 219 223
313 313 313 310 309 305 300 302 306 308 311 310 304 289 269 254 232 218 205 198 197 199 196 195 195 197 204 205 208 215 220 223 223 219 219 211 212 210 211 212 213 215 219
315 314 313 311 311 301 298 304 309 312 314 315 304 279 257 233 215 207 197 191 191 187 194 197 193 200 200 202 209 212 214 214 214 215 213 208 209 214 211 211 212 212 218
316 316 316 315 311 296 298 305 314 320 324 325 313 278 242 219 211 196 191 187 183 183 189 196 197 198 201 207 208 205 203 203 200 198 200 205 208 211 211 212 212 215 220
317 319 320 322 309 294 297 307 318 325 340 350 346 310 195 186 190 192 194 188 186 188 188 192 192 189 190 191 196 200 196 191 191 196 201 204 205 206 209 212 214 218 222
317 319 321 320 310 293 296 308 322 341 1 18 32 78 135 162 165 169 174 180 183 182 182 184 184 185 189 189 189 190 191 194 194 196 198 201 205 206 210 214 217 221 227
321 324 325 323 301 288 293 299 322 340 23 47 58 75 102 123 139 153 162 166 170 175 179 178 179 180 181 186 188 188 188 189 192 196 200 205 207 208 211 215 220 225 231
324 327 332 326 298 288 287 279 301 342 88 80 81 83 90 98 113 127 142 147 157 161 165 171 175 177 177 178 181 184 187 191 195 199 202 205 209 213 217 222 225 229 235
330 334 341 336 302 288 286 259 248 210 154 122 104 103 104 105 109 116 125 132 138 143 147 153 160 167 174 180 183 187 192 196 201 205 209 214 218 222 227 230 232 236 243
336 343 351 356 345 311 277 264 200 174 154 145 133 121 116 120 124 125 127 134 141 149 152 157 165 171 179 184 189 195 202 207 211 215 219 222 227 230 233 237 239 243 246
353 352 1 11 19 12 351 127 123 126 131 134 141 137 136 138 138 137 138 144 149 158 164 174 181 187 193 199 204 210 215 218 219 223 226 230 233 236 238 240 243 246 249
8 10 13 18 29 43 71 95 113 129 146 152 151 156 158 158 159 158 159 163 172 184 194 200 205 209 214 218 220 223 224 227 228 231 235 237 239 242 244 245 247 250 252
10 14 19 28 36 44 50 70 78 107 129 150 156 165 173 173 180 182 196 202 205 210 212 216 220 223 226 228 229 231 232 234 237 239 241 242 245 247 249 251 253 254 257
359 8 14 21 29 35 40 44 50 55 196 217 218 215 211 213 227 228 228 224 226 230 231 230 232 234 236 238 238 240 241 243 245 246 248 249 250 252 254 255 257 257 258
339 351 357 2 9 15 18 20 22 30 1 265 248 235 230 233 237 242 242 240 241 242 245 246 246 246 248 248 249 249 249 250 251 251 251 253 254 255 256 257 257 258 259
315 326 336 342 348 353 356 358 360 355 355 351 286 250 241 239 243 247 250 250 249 251 254 252 251 251 252 253 253 253 253 253 253 253 253 254 255 256 258 259 259 259 259
298 306 312 317 322 325 328 330 329 325 321 313 305 284 251 236 245 253 251 250 250 252 254 255 253 254 256 256 255 256 256 256 256 256 256 259 259 259 259 261 262 263 262
293 295 297 303 305 307 306 304 299 287 272 265 264 258 245 243 242 246 247 252 257 259 260 262 262 262 262 262 262 261 262 262 261 261 261 262 262 261 263 265 267 268 267
291 293 295 295 295 295 293 289 279 269 259 253 246 240 237 236 239 245 253 262 268 270 272 272 272 270 271 270 270 269 269 268 266 265 265 267 267 267 268 269 271 271 271
287 289 292 296 299 297 291 283 269 251 243 236 235 233 232 235 243 251 260 266 271 276 277 278 277 278 279 278 277 276 275 273 272 271 271 271 272 271 272 274 274 275 274